Location: Brunsen
(51.8651°N, 9.8610°E)
Time: 21:06:34
(UTC+00:00)

CZ-2C R/B - Pass Details

Date: 18 August 2024
Orbit: 782 x 869 km, 98.3° (Epoch: 07 September)

Event Time Altitude Azimuth Distance (km) Brightness Sun altitude
Exits shadow 23:57:28 18° 114° (ESE) 1,963 4.4 -24.7°
Maximum altitude 00:00:45 33° 62° (ENE) 1,374 4.1 -24.7°
Drops below altitude 10° 00:05:28 10° 0° (N) 2,419 6.1 -24.5°
Sets 00:07:59 0° 351° (N) 3,341 7.0 -24.5°
